FW7766 Weather Reports


time (UTC)temp
C
wind
direction
speed
KPH
gust
KPH
rain 1hr
cm
rain 24hr
cm
rain mn
cm
humidity
%
barometer
mb
20260904034018 25 0.0 0.0 0.00 0.00 0.00 65 1017.8
20260904033114 25 0.0 0.0 0.00 0.00 0.00 65 1017.9
20260904032111 25 0.0 0.0 0.00 0.00 0.00 65 1017.9
20260904031107 25 0.0 0.0 0.00 0.00 0.00 65 1018.0
20260904030104 25 0.0 0.0 0.00 0.00 0.00 64 1018.0
20260904025100 25 0.0 0.0 0.00 0.00 0.00 64 1017.9
20260904024057 25 0.0 0.0 0.00 0.00 0.00 64 1017.9
20260904023053 26 0.0 0.0 0.00 0.00 0.00 63 1017.9
20260904022050 26 0.0 0.0 0.00 0.00 0.00 63 1017.9
20260904021046 26 0.0 0.0 0.00 0.00 0.00 62 1018.0
20260904020043 26 0.0 0.0 0.00 0.00 0.00 62 1018.1
20260904015039 26 0.0 0.0 0.00 0.00 0.00 61 1018.0
20260904014036 26 0.0 0.0 0.00 0.00 0.00 61 1017.7
20260904013033 26 0.0 0.0 0.00 0.00 0.00 60 1017.7
20260904012029 27 0.0 0.0 0.00 0.00 0.00 60 1017.6
20260904011026 27 0.0 0.0 0.00 0.00 0.00 57 1017.5
20260904010043 27 0.0 0.0 0.00 0.00 0.00 56 1017.3
20260904005019 28 0.0 0.0 0.00 0.00 0.00 55 1017.2
20260904004016 28 0.0 0.0 0.00 0.00 0.00 55 1017.1
20260904003112 28 0.0 0.0 0.00 0.00 0.00 54 1017.0
20260904002109 29 0.0 0.0 0.00 0.00 0.00 55 1016.8
20260904001106 29 0.0 0.0 0.00 0.00 0.00 50 1016.7
20260903235119 30 0.0 0.0 0.00 0.00 0.00 50 1016.5
20260903234055 30 0.0 0.0 0.00 0.00 0.00 49 1016.6
20260903233112 31 0.0 0.0 0.00 0.00 0.00 46 1016.5
20260903232049 31 0.0 0.0 0.00 0.00 0.00 46 1016.4
20260903231045 32 0.0 0.0 0.00 0.00 0.00 46 1016.4
20260903230042 32 0.0 0.0 0.00 0.00 0.00 46 1016.4
20260903225038 32 0.0 0.0 0.00 0.00 0.00 36 1016.5
20260903224034 32 0.0 0.0 0.00 0.00 0.00 38 1016.3
20260903223031 33 0.0 0.0 0.00 0.00 0.00 39 1016.2
20260903222028 33 0.0 0.0 0.00 0.00 0.00 38 1016.4
20260903221024 33 0.0 0.0 0.00 0.00 0.00 38 1016.3
20260903220021 33 0.0 0.0 0.00 0.00 0.00 39 1016.3
20260903215017 33 0.0 0.0 0.00 0.00 0.00 39 1016.5
20260903214114 34 0.0 0.0 0.00 0.00 0.00 39 1016.5
20260903213111 34 270 0.0 1.6 0.00 0.00 0.00 40 1016.5
20260903212107 34 180 0.0 1.6 0.00 0.00 0.00 42 1016.6
20260903211104 34 270 1.6 3.2 0.00 0.00 0.00 42 1016.7
20260903210100 34 180 1.6 4.8 0.00 0.00 0.00 42 1016.7
20260903205057 34 270 0.0 1.6 0.00 0.00 0.00 40 1016.7
20260903204053 35 0.0 0.0 0.00 0.00 0.00 43 1016.9
20260903203129 34 270 0.0 1.6 0.00 0.00 0.00 40 1016.8
20260903202045 34 270 1.6 4.8 0.00 0.00 0.00 40 1017.0
20260903201101 34 270 0.0 3.2 0.00 0.00 0.00 39 1017.0
20260903200038 34 90 0.0 1.6 0.00 0.00 0.00 39 1017.2
20260903195054 34 0.0 0.0 0.00 0.00 0.00 39 1017.2
20260903194031 34 166 1.6 4.8 0.00 0.00 0.00 40 1017.4
20260903193027 35 323 3.2 4.8 0.00 0.00 0.00 42 1017.5
20260903192024 35 297 1.6 4.8 0.00 0.00 0.00 42 1017.6
20260903191021 35 203 1.6 4.8 0.00 0.00 0.00 40 1017.7
20260903190017 34 333 1.6 6.4 0.00 0.00 0.00 40 1017.7
20260903185114 34 320 1.6 4.8 0.00 0.00 0.00 40 1017.8
20260903184110 34 63 1.6 4.8 0.00 0.00 0.00 40 1017.8
20260903183107 34 270 1.6 4.8 0.00 0.00 0.00 40 1017.9
20260903182104 33 270 3.2 4.8 0.00 0.00 0.00 40 1018.0
20260903181100 33 270 3.2 4.8 0.00 0.00 0.00 39 1018.2
20260903180057 34 270 3.2 4.8 0.00 0.00 0.00 40 1018.2
20260903175054 35 270 1.6 4.8 0.00 0.00 0.00 39 1018.4
20260903174050 34 270 1.6 4.8 0.00 0.00 0.00 40 1018.4
20260903173047 34 293 3.2 4.8 0.00 0.00 0.00 40 1018.6
20260903172044 34 270 1.6 3.2 0.00 0.00 0.00 41 1018.6
20260903171100 34 90 0.0 1.6 0.00 0.00 0.00 40 1018.9
20260903170037 35 90 1.6 3.2 0.00 0.00 0.00 40 1018.9
20260903165033 34 0.0 0.0 0.00 0.00 0.00 38 1019.0
20260903164030 33 270 1.6 3.2 0.00 0.00 0.00 38 1019.1
20260903163027 33 297 1.6 3.2 0.00 0.00 0.00 38 1019.1
20260903162023 34 0.0 0.0 0.00 0.00 0.00 39 1019.3
20260903161020 33 270 1.6 8.0 0.00 0.00 0.00 37 1019.3
20260903160016 32 353 1.6 3.2 0.00 0.00 0.00 39 1019.4
20260903155136 31 320 1.6 4.8 0.00 0.00 0.00 46 1019.4
20260903154130 31 0 0.0 1.6 0.00 0.00 0.00 48 1019.5
20260903153127 30 278 1.6 3.2 0.00 0.00 0.00 48 1019.5
20260903152123 30 0 1.6 1.6 0.00 0.00 0.00 50 1019.6
20260903151100 30 333 0.0 1.6 0.00 0.00 0.00 52 1019.6
20260903150056 29 0 1.6 1.6 0.00 0.00 0.00 55 1019.7
20260903145113 28 0.0 0.0 0.00 0.00 0.00 55 1019.4
20260903144050 28 0.0 0.0 0.00 0.00 0.00 55 1019.5
20260903143046 28 0 0.0 1.6 0.00 0.00 0.00 55 1019.6
20260903142043 27 0 0.0 3.2 0.00 0.00 0.00 54 1019.5
20260903141039 27 0 0.0 1.6 0.00 0.00 0.00 58 1019.6
20260903140036 26 0 0.0 1.6 0.00 0.00 0.00 58 1019.5
20260903135113 26 0.0 0.0 0.00 0.00 0.00 60 1019.5
20260903134049 25 0.0 0.0 0.00 0.00 0.00 61 1019.4
20260903133026 25 0.0 0.0 0.00 0.00 0.00 63 1019.6
20260903132023 24 0.0 1.6 0.00 0.00 0.00 65 1019.6
20260903131019 23 0.0 0.0 0.00 0.00 0.00 66 1019.6
20260903130016 23 0.0 0.0 0.00 0.00 0.00 69 1019.5
20260903125112 23 0.0 0.0 0.00 0.00 0.00 77 1019.6
20260903124109 23 0.0 0.0 0.00 0.00 0.00 84 1019.5
20260903123106 22 0.0 0.0 0.00 0.00 0.00 86 1019.5
20260903122102 22 270 0.0 1.6 0.00 0.00 0.00 87 1019.7
20260903121058 22 0.0 0.0 0.00 0.00 0.00 90 1019.4
20260903120055 22 0.0 0.0 0.00 0.00 0.00 91 1019.4
20260903115051 22 0.0 0.0 0.00 0.00 0.00 90 1019.3
20260903114047 22 0.0 0.0 0.00 0.00 0.00 90 1019.1
20260903113124 22 0.0 0.0 0.00 0.00 0.00 90 1018.9
20260903112040 22 0.0 0.0 0.00 0.00 0.00 88 1018.8
20260903111035 22 0.0 0.0 0.00 0.00 0.00 89 1018.7
20260903110032 22 0.0 0.0 0.00 0.00 0.00 89 1018.6
20260903105028 22 0.0 0.0 0.00 0.00 0.00 89 1018.7
20260903104025 22 0.0 0.0 0.00 0.00 0.00 90 1018.6
20260903103021 22 0.0 0.0 0.00 0.00 0.00 90 1018.7
20260903102018 22 90 1.6 4.8 0.00 0.00 0.00 88 1018.8
20260903101115 22 90 1.6 3.2 0.00 0.00 0.00 88 1018.6
20260903100111 22 0.0 0.0 0.00 0.00 0.00 86 1018.4
20260903095108 22 0.0 0.0 0.00 0.00 0.00 86 1018.4
20260903094105 22 0.0 0.0 0.00 0.00 0.00 86 1018.4
20260903093101 22 0 0.0 1.6 0.00 0.00 0.00 87 1018.3
20260903092058 22 0.0 0.0 0.00 0.00 0.00 87 1018.3
20260903091054 22 0.0 0.0 0.00 0.00 0.00 86 1018.3
20260903090051 22 0.0 0.0 0.00 0.00 0.00 86 1018.2
20260903085107 22 0.0 0.0 0.00 0.00 0.00 86 1018.4
20260903084044 22 0.0 0.0 0.00 0.00 0.00 85 1018.1
20260903083041 22 0.0 0.0 0.00 0.00 0.00 85 1018.1
20260903082038 22 0.0 0.0 0.00 0.00 0.00 84 1018.2
20260903081034 22 0.0 0.0 0.00 0.00 0.00 81 1018.2
20260903080031 22 0.0 0.0 0.00 0.00 0.00 78 1018.3
20260903075027 22 0.0 0.0 0.00 0.00 0.00 78 1018.2
20260903074024 23 0.0 0.0 0.00 0.00 0.00 79 1018.1
20260903073021 23 0.0 0.0 0.00 0.00 0.00 80 1017.9
20260903072017 23 0.0 0.0 0.00 0.00 0.00 80 1017.9
20260903071114 23 0.0 0.0 0.00 0.00 0.00 79 1018.0
20260903070111 23 0.0 0.0 0.00 0.00 0.00 79 1018.0
20260903065107 23 0.0 0.0 0.00 0.00 0.00 79 1017.9
20260903064104 23 0.0 0.0 0.00 0.00 0.00 80 1017.9
20260903063101 23 0.0 0.0 0.00 0.00 0.00 83 1018.0
20260903062057 23 0.0 0.0 0.00 0.00 0.00 81 1018.0
20260903061054 23 0.0 0.0 0.00 0.00 0.00 79 1018.1
20260903060050 23 0.0 0.0 0.00 0.00 0.00 78 1018.0
20260903055047 23 0.0 0.0 0.00 0.00 0.00 75 1018.1
20260903054043 23 0.0 0.0 0.00 0.00 0.00 77 1018.1
20260903053100 23 0.0 0.0 0.00 0.00 0.00 76 1018.2
20260903052037 23 0.0 0.0 0.00 0.00 0.00 73 1018.0
20260903051033 23 0.0 0.0 0.00 0.00 0.00 74 1018.2
20260903050110 23 0.0 0.0 0.00 0.00 0.00 72 1018.1
20260903045026 23 0.0 0.0 0.00 0.00 0.00 70 1018.3
20260903044023 24 0.0 0.0 0.00 0.00 0.00 69 1018.0
20260903043019 24 0.0 0.0 0.00 0.00 0.00 69 1017.9
20260903042036 24 0.0 0.0 0.00 0.00 0.00 68 1018.0
20260903041133 24 0.0 0.0 0.00 0.00 0.00 68 1018.2
20260903040109 24 0.0 0.0 0.00 0.00 0.00 67 1018.2
20260903035106 25 0.0 0.0 0.00 0.00 0.00 67 1018.2